Theta_e
342 338 341 337 334 334 337 342 339 338 335 333 332 331 331 331 332 331 332 333 336 341 343 343 343 343 343 343 342 342 341 340 337 334 330 331 333 331 334 337 337 339 340 340 340 341 341 341 340 340 339 340 340 339 338 338 338 337 336 337 337 336 335 335 337 337 337 337 337 335 333 334 334 333 332 331 331 330 328 328 330 331 332 332 331
343 340 342 341 338 334 340 344 339 338 336 333 332 332 331 331 331 328 328 329 331 334 339 341 341 342 341 341 340 339 336 332 329 328 329 334 336 334 334 336 338 339 340 339 339 339 339 339 339 338 339 339 339 339 338 337 336 335 336 336 335 336 335 335 336 336 336 336 335 334 332 332 331 330 330 330 331 329 327 328 330 331 331 331 331
343 344 344 344 341 337 341 345 340 338 336 333 332 332 331 332 331 326 324 325 326 327 330 333 335 337 337 337 334 329 324 321 322 324 329 333 335 336 337 338 338 338 338 338 337 337 338 338 338 338 338 338 337 337 337 336 335 335 336 333 333 335 335 335 335 335 335 334 334 334 333 331 331 331 332 332 331 330 328 328 329 329 329 329 329
343 344 344 345 344 341 343 345 341 338 336 334 331 332 332 332 331 326 322 324 326 325 324 325 329 332 331 329 324 323 321 323 327 328 331 334 334 335 336 338 338 339 338 337 336 335 335 335 335 336 336 335 336 337 337 334 334 335 334 331 332 334 334 333 332 331 331 331 332 333 332 331 332 332 332 332 330 330 330 330 330 329 329 329 329
343 344 344 345 345 344 345 345 342 338 336 334 332 332 331 332 332 326 322 325 327 326 324 322 323 326 325 324 326 329 328 332 335 335 335 336 336 334 333 336 338 339 339 338 337 335 335 334 334 336 335 334 335 336 336 333 333 333 331 331 332 332 332 330 328 327 329 331 332 332 332 332 333 332 332 332 330 330 331 331 331 330 329 329 329
343 344 343 345 345 345 345 344 342 339 336 334 332 331 332 332 332 328 323 325 327 329 326 322 322 326 329 330 333 334 334 337 339 338 338 337 336 334 334 334 337 339 340 339 339 337 335 334 335 337 336 334 334 335 334 333 333 332 331 331 330 330 330 329 327 328 331 331 331 331 332 332 332 332 332 332 330 331 331 331 331 330 329 330 330
343 343 344 346 346 345 344 343 342 341 336 334 332 332 333 332 332 329 326 326 329 330 327 325 327 332 334 335 335 336 338 339 340 340 340 339 337 336 335 335 337 338 338 339 340 339 337 334 335 335 335 335 335 335 333 333 334 333 333 333 332 332 330 330 328 327 330 331 331 331 332 333 332 333 332 332 331 331 331 331 331 330 330 331 331
343 344 345 346 345 344 344 343 343 340 336 334 332 332 333 332 333 332 329 328 329 330 329 328 329 332 334 334 334 336 339 340 340 340 340 339 338 337 336 336 339 337 334 335 336 339 339 337 335 333 334 336 335 335 334 334 334 334 334 334 335 335 332 331 330 327 329 331 332 332 333 334 334 334 334 333 332 332 331 331 330 330 330 330 330
343 345 345 345 345 345 344 344 343 340 337 334 333 332 333 333 332 332 332 332 331 331 330 329 330 331 332 333 333 335 338 339 339 338 339 340 339 338 337 336 338 337 334 333 332 334 337 339 337 334 335 336 335 335 335 335 335 335 333 333 334 335 333 332 332 329 328 330 332 332 333 333 333 333 334 333 331 331 331 330 329 329 329 330 329
343 345 344 345 345 345 344 344 343 341 336 334 333 332 333 334 333 333 334 334 335 334 332 331 331 332 332 332 332 335 337 338 338 338 340 340 339 337 335 335 336 336 335 334 332 331 332 336 337 336 335 336 335 335 334 334 335 336 335 335 334 334 335 334 333 331 329 329 331 332 332 333 331 331 332 332 331 330 330 330 330 330 330 330 329
344 345 345 345 345 345 344 344 343 341 336 335 334 332 332 334 334 333 334 335 337 337 336 334 333 333 333 333 333 334 334 335 337 338 340 340 340 337 335 334 334 336 335 334 333 331 330 331 333 333 334 335 334 333 333 334 334 335 336 336 334 335 336 335 334 333 330 330 331 332 332 331 330 331 332 332 332 330 330 330 331 330 330 330 329
345 346 346 346 345 345 345 344 344 341 336 335 334 333 332 334 335 334 334 336 337 339 338 336 334 334 333 334 333 332 332 334 336 337 339 339 339 337 335 334 333 335 334 334 333 333 331 331 330 331 332 333 332 332 333 333 332 332 332 333 333 334 334 335 335 334 331 330 332 332 332 331 331 332 332 332 331 330 330 331 331 330 330 330 328
346 345 345 346 346 345 344 343 343 340 337 337 336 334 333 334 336 335 337 338 338 339 339 337 335 335 334 334 333 331 332 334 336 337 337 338 339 337 336 335 334 333 334 333 334 333 332 331 330 331 331 331 331 331 331 330 330 330 330 330 332 333 334 335 335 335 332 330 331 331 331 331 332 332 332 331 331 331 330 330 331 330 329 329 327
345 345 345 345 344 344 343 343 341 340 340 340 339 336 334 336 338 338 338 339 339 340 339 338 335 335 335 334 332 331 334 336 338 338 338 339 338 337 335 335 334 333 333 334 334 333 332 330 329 330 328 328 329 329 328 328 327 328 329 331 333 333 335 336 335 334 332 330 330 330 330 330 331 331 332 331 330 331 331 330 331 330 329 328 327
345 344 344 343 342 341 340 338 337 338 339 340 338 338 337 337 339 338 338 338 339 339 339 338 337 336 335 335 333 334 336 338 340 340 339 337 335 336 334 334 334 333 333 334 333 332 330 328 327 327 325 326 326 326 325 326 326 328 329 331 333 333 335 336 335 334 331 330 329 329 329 328 329 331 332 331 330 330 331 331 330 330 329 328 327
344 343 343 343 340 339 337 335 335 336 337 337 337 338 339 338 338 337 337 338 339 338 339 339 338 338 337 337 337 337 339 339 339 338 335 332 331 332 331 331 333 333 334 333 332 330 327 326 326 325 324 324 324 324 324 325 326 328 330 331 333 333 334 335 334 332 331 330 329 329 328 327 330 332 333 332 331 330 330 331 329 329 329 327 327
343 343 342 341 338 337 337 337 338 337 336 336 337 339 340 339 339 337 337 339 339 338 339 340 339 340 339 340 339 338 337 336 335 333 332 330 329 328 328 330 333 334 334 332 331 328 326 326 327 326 325 324 324 324 324 325 327 329 330 331 333 333 333 333 333 332 331 330 329 328 327 328 331 333 332 331 330 330 330 331 329 329 328 328 327
341 340 339 338 338 337 337 339 339 337 337 338 340 340 340 339 339 338 338 338 338 339 339 340 340 340 339 338 337 336 335 334 333 333 332 331 329 327 328 332 334 334 332 331 331 329 326 326 327 327 326 325 324 324 324 326 327 328 329 332 334 333 333 333 333 332 331 330 329 328 328 329 331 333 332 329 327 328 329 330 328 328 328 328 327
340 338 336 337 338 338 336 337 336 336 339 340 340 339 338 338 338 337 337 338 339 339 339 339 338 338 336 335 335 336 335 334 334 334 333 331 329 328 329 332 333 332 331 330 330 330 328 327 327 327 327 325 325 325 325 326 327 328 329 332 333 333 333 333 333 332 331 330 329 328 329 329 330 331 331 328 328 330 330 329 328 328 329 327 326
339 338 336 338 337 336 335 335 335 337 339 339 339 338 337 337 337 337 337 338 339 339 338 337 336 336 335 335 336 337 336 335 335 334 332 331 329 329 328 329 329 328 329 329 328 329 329 327 328 328 328 327 326 325 326 326 327 328 329 333 334 333 333 333 333 332 332 330 329 329 329 329 328 330 331 329 330 330 329 329 329 329 329 327 327
339 338 337 338 336 335 335 336 337 339 338 337 338 337 337 336 337 338 338 339 338 338 337 336 336 335 336 337 337 337 336 334 334 333 332 331 330 329 328 328 328 328 329 328 327 329 329 328 328 329 329 328 327 326 327 327 326 327 328 332 334 334 333 333 333 332 332 331 330 329 329 329 328 331 332 331 331 328 327 328 329 330 329 327 327
338 338 338 338 336 336 337 337 339 340 338 337 337 337 337 337 337 338 337 337 337 336 335 335 336 336 336 336 337 336 336 334 332 333 331 331 330 329 328 329 329 329 330 329 328 329 329 329 328 329 329 328 328 328 328 327 327 326 326 329 333 334 333 333 333 332 332 331 330 329 329 328 329 332 332 331 331 328 327 328 329 329 329 329 327
337 339 340 339 338 338 337 337 339 339 338 337 337 338 338 338 337 337 336 335 335 334 333 333 334 334 334 335 336 336 336 335 333 333 331 331 331 330 329 329 329 329 330 330 329 329 329 330 329 329 329 329 328 328 328 328 327 326 326 327 330 334 334 333 333 333 332 331 331 329 329 327 329 332 332 332 331 328 328 328 328 329 328 329 327
339 339 340 338 337 338 337 335 337 338 339 338 337 338 338 337 336 336 335 334 334 334 333 332 332 333 333 333 334 335 335 334 334 334 332 331 331 330 331 330 330 330 330 331 330 330 329 329 329 328 329 329 329 328 329 329 327 326 326 326 329 333 334 333 333 332 332 332 331 330 328 327 329 332 333 331 331 329 329 329 328 328 327 328 327
337 335 334 334 334 338 337 335 336 337 338 338 338 338 337 337 336 336 335 334 334 333 333 333 333 333 333 333 334 334 334 334 334 334 333 332 331 332 332 331 330 330 330 330 331 330 329 328 328 328 329 329 329 329 328 328 327 326 326 326 328 332 334 333 332 332 332 332 331 330 328 327 329 332 333 331 331 330 329 329 327 327 327 327 327
335 331 330 332 333 338 338 335 335 336 338 337 337 337 337 336 336 335 334 334 334 333 334 334 334 334 334 334 334 334 334 334 335 335 334 332 332 332 333 332 331 331 330 330 330 329 329 327 326 326 328 329 329 329 327 327 327 327 327 327 328 331 334 334 333 332 331 332 331 330 328 327 329 331 333 331 331 330 329 329 328 327 326 326 327
334 332 330 331 333 337 337 334 334 336 337 336 336 336 336 335 335 334 333 333 334 333 334 334 334 334 334 334 333 333 334 334 335 336 336 334 332 332 333 332 332 331 330 329 328 327 328 329 328 326 325 327 328 327 327 327 328 328 328 328 328 331 334 334 334 332 332 332 331 329 329 328 328 330 332 331 330 330 329 328 328 327 326 326 326
332 332 331 331 332 334 334 333 333 335 334 333 333 333 333 333 333 333 332 333 333 334 334 334 334 334 333 334 333 333 334 334 334 335 336 335 333 333 334 333 332 332 330 328 326 325 329 331 330 328 326 326 326 327 328 328 328 328 328 328 328 331 334 334 334 333 332 331 330 329 328 328 328 329 331 331 331 330 329 328 328 327 326 326 326
332 330 332 332 332 331 331 332 331 332 332 330 331 330 330 331 332 333 333 334 333 334 334 334 334 334 333 333 333 333 333 334 335 335 335 335 335 334 334 333 332 331 329 328 327 326 329 332 331 330 329 327 327 329 329 329 328 328 328 328 328 330 332 334 334 334 333 331 330 330 329 328 328 328 330 331 330 330 329 328 328 327 326 325 325
332 329 331 332 332 331 333 334 330 330 330 329 330 329 330 331 332 333 333 334 334 334 334 334 334 334 334 334 334 333 333 334 335 335 335 335 335 335 334 333 333 331 329 329 329 328 328 331 331 331 330 329 330 329 329 329 328 327 327 328 327 327 329 331 333 333 333 332 331 330 329 328 328 327 328 330 330 330 329 329 328 328 327 326 325
333 331 333 333 334 335 336 334 329 329 328 328 329 329 330 330 331 332 333 333 333 334 334 334 334 334 334 334 334 334 334 335 334 334 334 334 334 334 334 333 333 332 331 330 330 330 330 330 330 330 330 330 330 330 329 329 328 326 326 327 327 327 327 329 331 332 333 333 331 330 329 329 328 328 328 328 329 330 329 329 328 328 327 326 326
334 333 334 335 336 337 337 334 331 330 328 328 329 329 329 330 331 332 332 332 332 333 334 335 336 335 335 335 335 334 335 335 334 334 334 334 334 334 334 333 333 333 332 332 331 332 331 332 331 331 330 330 330 330 329 329 328 327 326 326 326 327 327 328 329 330 332 333 333 331 330 329 328 328 329 328 329 330 330 329 328 328 327 327 327
334 334 335 336 337 338 337 336 333 331 330 330 330 330 331 332 331 331 332 333 333 334 336 337 337 336 335 335 335 334 334 334 334 335 335 334 334 334 334 334 334 334 333 333 332 332 332 332 332 331 330 330 330 329 329 328 328 327 326 325 326 326 326 327 327 329 331 332 333 332 331 330 329 328 328 329 329 329 330 328 328 329 327 327 326
334 333 335 336 337 339 339 337 335 334 334 333 334 335 336 336 335 334 334 335 336 337 337 337 337 336 335 334 335 334 334 334 335 335 334 334 333 333 333 333 334 334 334 333 332 333 332 331 331 331 332 331 330 329 329 329 327 327 325 325 326 326 326 326 326 326 328 329 332 333 332 331 330 328 328 329 329 329 330 329 329 329 328 327 326
334 334 335 336 337 338 340 339 337 338 338 337 338 338 339 339 338 336 336 337 338 338 337 336 335 335 335 334 334 334 334 334 334 334 334 334 334 333 333 332 333 333 333 332 332 332 332 332 332 332 332 332 331 330 329 328 328 326 326 326 326 327 326 326 326 326 326 327 329 331 333 332 331 330 328 328 328 329 329 329 329 329 328 327 326
335 335 335 336 338 339 340 340 340 340 340 339 339 340 339 339 338 338 337 337 336 336 336 335 335 335 335 334 334 334 333 333 333 333 334 334 333 333 332 332 332 333 332 332 332 332 331 332 332 332 332 332 330 329 328 327 327 325 326 327 326 327 328 327 326 326 326 326 327 330 331 332 332 331 329 328 328 328 328 328 329 329 328 328 327
335 336 338 338 339 340 341 341 341 341 340 339 339 339 339 338 338 337 336 335 335 335 334 334 334 335 334 334 333 333 333 333 333 333 334 333 333 332 332 332 332 332 332 332 331 331 331 331 332 332 332 331 331 329 328 326 325 324 326 327 327 328 328 328 327 326 326 326 327 329 331 332 332 331 331 329 328 327 328 328 329 329 329 329 328
335 337 338 339 339 340 341 341 342 341 340 339 339 338 337 337 336 335 334 333 334 333 334 334 334 334 333 332 332 332 333 333 332 333 332 333 332 332 331 332 332 332 332 331 330 331 331 331 331 332 331 331 331 330 328 326 324 323 324 327 328 329 328 328 328 328 327 327 328 329 331 332 332 332 331 330 329 328 327 328 328 329 329 329 329
335 338 339 339 340 341 340 341 342 341 340 339 338 337 336 335 334 333 333 332 332 333 333 333 332 331 330 329 329 330 330 331 330 332 331 332 331 331 331 331 331 331 330 330 329 330 330 330 330 331 331 331 331 329 327 326 324 323 322 324 327 328 328 328 328 328 327 328 329 330 330 331 332 331 331 330 330 329 328 328 328 328 329 329 329
335 338 338 338 339 340 340 341 341 340 340 339 338 336 333 333 332 332 332 331 331 332 332 331 329 328 327 327 328 328 329 329 329 330 330 329 330 330 330 330 330 330 329 329 329 329 329 329 329 330 330 331 331 330 327 327 326 325 324 324 325 326 326 327 327 327 328 328 328 329 330 330 331 331 331 331 330 330 329 328 328 328 328 328 329
335 337 338 339 338 338 340 340 341 341 339 338 336 334 332 331 332 331 330 330 330 331 330 329 328 326 326 326 326 326 326 326 328 329 328 328 328 328 328 328 328 328 329 328 328 328 329 329 329 330 330 330 330 329 328 328 328 327 327 326 325 324 324 325 326 326 327 328 328 328 329 329 329 330 330 330 329 330 329 329 329 328 328 328 328
333 335 336 338 338 338 340 340 340 340 339 337 334 332 331 330 330 330 329 328 329 328 327 327 326 325 324 325 325 324 324 324 326 327 326 326 326 327 327 327 328 328 328 327 327 327 328 329 329 329 329 329 329 329 328 328 328 328 327 327 328 327 325 325 324 324 325 327 328 328 328 328 327 327 327 328 327 327 328 329 329 328 328 328 328
330 332 333 336 338 339 339 339 339 339 338 336 332 331 330 329 329 329 327 327 327 328 326 325 325 323 323 323 323 324 323 322 324 325 325 324 324 325 325 326 326 326 327 326 326 327 327 328 328 328 329 328 329 329 328 328 327 327 327 328 330 329 327 326 325 324 323 326 327 327 327 327 326 325 326 327 325 325 325 326 326 326 327 328 328
329 330 331 334 336 338 338 338 338 338 338 335 331 330 329 328 329 329 327 327 327 326 325 324 323 322 321 321 321 322 322 322 323 324 323 322 322 323 324 324 324 325 325 326 326 326 327 326 327 327 328 328 328 328 328 328 327 327 327 327 326 325 328 328 326 327 325 324 324 325 326 326 325 325 326 326 325 325 325 325 325 325 326 326 327
330 330 330 332 334 336 337 337 337 336 336 334 331 329 328 327 329 329 328 327 325 324 323 322 321 320 320 320 321 321 321 322 322 323 322 321 321 321 323 323 323 324 324 325 326 326 326 325 325 326 326 327 327 328 328 328 327 326 327 326 325 326 329 327 326 328 328 326 323 323 324 325 326 326 326 326 326 326 325 326 326 326 327 326 327
330 330 330 331 333 334 335 335 334 333 333 332 330 328 327 326 328 328 328 326 323 322 322 321 320 321 321 320 320 320 320 321 321 321 321 321 320 320 321 321 322 323 323 324 324 325 326 325 325 326 326 326 327 327 327 327 327 327 326 327 326 327 328 325 325 328 328 328 327 327 327 326 327 327 326 327 327 327 327 327 328 328 327 327 327
329 330 331 331 332 332 333 333 332 331 331 331 328 327 326 324 325 325 327 325 323 322 321 321 320 320 321 320 320 319 319 320 320 320 320 319 319 319 319 320 321 322 321 322 322 323 324 325 326 326 326 326 326 327 327 326 326 327 327 326 326 326 327 326 327 327 328 328 327 328 329 328 329 328 327 327 327 327 327 326 327 326 326 327 327
330 330 330 330 329 328 327 329 331 330 330 329 327 326 325 324 324 324 324 324 322 321 320 320 320 320 320 319 319 319 319 318 318 318 319 318 317 317 316 317 319 320 320 320 321 321 322 323 325 326 326 326 326 326 326 325 325 326 327 327 326 325 325 326 326 326 329 330 327 326 325 326 327 327 327 327 327 327 326 326 326 325 326 327 327
331 329 328 327 325 325 324 325 329 330 329 328 325 324 324 323 324 323 322 321 320 320 320 320 320 320 320 319 319 318 318 318 318 317 317 317 315 314 313 314 317 318 318 319 319 319 320 322 323 324 324 323 322 323 324 324 324 325 326 325 325 324 323 325 324 323 324 326 328 325 321 321 322 323 327 329 328 327 325 325 326 326 327 328 327
328 326 326 327 326 326 326 325 327 328 327 326 324 323 323 323 323 322 321 320 319 320 320 320 320 320 319 319 318 318 317 317 316 316 316 315 314 313 310 311 314 316 317 317 318 318 319 320 321 322 322 321 318 319 321 322 324 325 325 324 324 324 323 323 322 321 320 319 322 320 315 316 318 319 322 324 322 319 318 320 323 323 324 324 323
326 325 326 327 327 326 327 326 326 325 324 323 322 322 322 322 322 322 321 319 318 319 320 321 320 320 319 318 318 317 316 315 315 315 314 314 313 313 310 310 312 313 314 315 316 316 317 318 319 319 319 318 318 318 318 319 322 323 322 321 320 319 319 318 316 319 320 319 319 317 313 313 314 313 314 313 311 312 314 317 320 321 323 323 322
Wind_Speed
21 22 20 20 19 21 20 21 23 22 22 21 22 21 21 22 24 25 26 27 27 26 27 26 25 25 24 25 25 25 25 24 23 22 22 21 19 19 19 18 19 18 18 17 16 15 14 14 13 13 13 13 14 14 15 17 17 17 18 17 17 17 16 17 17 17 16 16 15 14 15 15 15 15 16 15 15 14 14 16 16 16 15 14 14
22 21 21 20 19 21 21 21 23 23 22 22 22 21 22 22 23 24 25 26 26 26 25 23 23 23 23 25 25 25 24 23 22 21 21 20 19 18 19 19 19 18 17 17 15 15 14 13 13 13 13 14 14 14 15 15 16 17 17 16 16 16 16 16 17 16 15 15 14 14 15 16 16 16 15 15 14 13 14 15 15 15 14 14 14
23 21 21 20 20 21 21 21 23 24 23 23 23 22 22 22 23 23 24 25 25 25 24 23 23 24 25 25 24 23 23 22 22 21 21 20 20 19 19 18 18 17 16 16 15 14 13 13 13 13 13 14 14 15 16 15 16 18 17 15 16 16 16 17 17 15 14 14 14 15 15 16 16 16 15 14 14 14 14 14 14 14 13 13 14
23 22 21 20 19 21 22 22 23 24 24 23 23 23 23 22 23 23 24 23 24 24 24 24 25 26 26 25 24 23 23 23 22 22 22 21 20 19 19 19 18 17 16 15 15 14 13 13 13 13 13 13 14 15 15 15 18 18 17 16 17 17 16 16 16 15 14 15 16 16 16 16 16 16 15 15 14 14 14 14 13 13 13 14 14
24 22 22 21 19 22 23 23 23 24 24 24 24 24 23 23 23 23 23 22 22 22 23 24 25 26 25 24 22 22 22 22 21 20 20 21 20 19 20 19 18 16 15 15 15 15 14 14 14 13 13 14 15 15 15 17 18 18 17 17 16 16 16 15 15 16 16 17 17 17 17 16 16 15 15 14 14 14 14 14 14 13 13 14 14
24 23 22 22 21 23 23 24 23 24 24 23 24 24 24 23 23 23 23 22 21 21 21 23 24 24 22 22 21 20 20 20 19 18 18 19 19 20 20 19 18 15 14 14 16 16 15 13 13 14 14 14 15 15 16 18 18 18 18 17 16 16 15 15 15 16 17 17 16 16 17 16 15 14 14 13 14 14 14 14 14 13 13 14 14
23 22 22 22 23 23 23 24 23 23 24 23 23 23 23 23 23 23 22 22 21 20 20 21 22 22 20 19 19 19 19 19 18 18 18 18 19 19 19 19 18 16 14 14 15 14 13 13 13 13 14 15 15 15 16 18 18 18 17 15 15 14 14 13 14 15 15 15 15 16 17 16 14 13 13 13 14 13 14 13 13 13 13 14 12
23 22 22 23 22 22 22 23 22 22 23 23 23 22 22 22 23 22 22 22 21 20 19 20 21 21 20 19 19 19 18 18 18 18 18 18 19 19 17 17 17 15 14 13 13 13 12 13 13 13 14 15 15 16 16 16 16 16 13 12 12 11 11 12 12 13 14 15 15 15 16 15 13 12 12 13 13 13 13 12 12 13 14 14 12
23 22 22 23 22 22 22 22 21 20 21 22 22 22 21 21 21 22 22 21 21 20 19 19 19 20 20 19 19 18 17 17 17 17 18 18 19 18 17 16 16 14 13 14 14 13 12 12 13 13 14 15 15 16 16 15 15 14 12 10 9 8 8 10 10 11 12 13 14 14 15 15 13 13 12 11 11 12 12 11 12 13 13 13 12
23 23 23 23 23 23 23 23 21 20 20 21 21 21 20 20 20 20 21 21 20 20 19 19 19 19 19 19 18 18 17 16 16 16 17 18 17 17 16 16 15 12 12 13 13 12 12 11 12 13 14 14 14 15 15 14 13 12 11 9 8 6 6 7 7 8 9 11 13 13 14 12 11 12 12 11 11 11 11 12 13 13 13 13 12
21 23 24 23 23 23 23 24 23 21 21 21 21 20 20 19 19 19 19 19 19 19 19 18 18 18 18 18 17 17 16 15 15 15 16 16 16 16 15 14 13 11 11 11 11 11 11 11 11 12 13 12 13 14 13 12 12 11 10 9 7 6 5 5 6 7 7 9 11 12 11 9 8 10 11 12 11 11 12 12 12 12 13 12 12
21 24 24 23 22 22 22 22 21 21 21 22 21 20 19 19 19 18 18 17 17 18 18 18 18 17 17 16 16 15 14 14 13 14 14 14 14 14 13 12 11 10 9 8 9 9 10 11 11 13 13 12 12 12 11 10 10 9 8 8 6 5 5 5 5 6 7 8 9 10 9 8 10 11 11 12 11 11 11 11 11 11 12 11 11
23 25 23 22 21 21 21 20 19 19 20 20 20 20 19 19 18 17 16 15 15 16 17 17 17 16 16 15 15 14 13 13 12 13 14 14 13 12 11 10 9 8 7 7 7 7 9 10 11 13 13 12 12 11 9 8 7 7 7 7 4 3 4 5 6 6 7 7 7 8 8 9 10 10 11 12 11 11 11 10 11 11 11 11 10
24 25 24 23 21 20 20 19 19 19 18 18 19 19 19 18 16 16 16 15 15 15 15 16 16 16 15 14 14 13 12 12 13 13 13 12 12 11 10 8 7 6 6 6 6 7 8 9 10 12 13 13 11 10 8 7 7 7 8 7 4 3 4 6 7 7 7 7 6 7 7 8 9 9 11 11 11 11 11 11 11 10 10 10 10
24 24 23 23 21 20 19 18 18 18 18 18 18 18 18 17 16 16 15 15 14 14 15 15 16 15 15 14 13 12 12 13 13 12 11 10 10 10 9 8 7 6 6 6 6 7 7 8 11 13 13 13 12 10 9 8 8 8 8 7 4 4 6 8 9 7 7 7 6 6 6 7 8 9 10 10 10 10 11 10 9 9 9 9 9
23 23 22 22 21 21 19 18 18 19 19 19 18 18 18 17 16 15 15 14 14 14 14 14 15 15 15 14 14 13 13 13 12 10 10 9 9 9 9 8 8 7 6 6 6 7 8 10 13 13 13 13 12 11 9 8 7 7 7 7 5 5 8 10 9 8 7 6 6 6 6 7 9 9 9 9 10 10 10 9 9 9 9 9 9
22 22 21 22 21 20 19 19 19 20 20 19 18 18 17 16 16 16 15 14 13 14 14 14 14 14 14 13 13 13 13 12 11 10 9 9 8 8 8 8 9 8 7 7 7 8 9 11 13 12 12 12 12 11 10 9 7 7 6 7 6 6 9 10 9 8 6 6 5 6 6 8 10 9 8 8 9 9 10 9 8 10 10 9 8
20 21 21 20 20 21 20 19 19 19 19 17 18 17 16 16 15 15 15 14 14 14 14 14 13 13 13 13 13 12 12 11 11 10 9 8 8 8 8 9 9 8 7 7 7 8 10 11 11 11 11 11 11 10 9 9 8 6 6 6 6 7 9 10 9 8 6 6 5 6 6 8 9 8 7 6 6 8 10 9 8 10 10 8 8
19 19 20 20 20 20 20 20 19 20 19 17 17 17 16 15 15 15 15 14 14 14 13 13 13 12 12 12 11 11 11 10 10 9 9 8 7 7 8 9 8 8 8 7 7 7 9 9 9 8 9 9 9 9 8 8 7 6 6 5 5 7 10 11 11 9 7 5 4 5 5 6 7 6 6 5 6 9 10 9 8 9 9 7 8
19 19 20 20 21 21 21 22 22 21 20 19 18 17 16 15 16 15 15 15 14 13 13 12 12 12 11 11 11 11 11 10 9 9 9 8 7 7 6 7 7 7 8 7 7 6 7 8 8 7 7 8 8 9 8 8 7 6 6 6 6 6 10 12 11 9 7 5 4 4 5 5 5 5 5 5 8 9 8 9 8 8 8 7 8
18 18 18 19 20 20 21 22 22 21 20 20 18 17 16 15 16 15 15 14 13 13 12 12 12 12 11 11 10 11 11 11 10 9 9 8 7 6 6 6 7 7 7 7 7 7 7 7 7 7 6 7 7 8 7 7 7 6 6 6 7 6 9 11 11 9 7 6 4 4 4 4 5 5 6 6 7 7 7 9 8 7 7 7 7
16 15 15 16 17 17 18 19 19 18 19 19 18 17 16 16 16 15 14 14 13 13 12 12 12 12 11 10 10 10 10 10 9 8 8 8 7 7 7 7 7 7 7 7 7 6 6 5 6 6 6 6 6 6 6 7 7 6 6 6 6 6 7 10 10 9 7 5 4 3 3 4 4 5 6 7 7 5 5 9 7 7 7 7 6
13 12 12 13 14 14 15 17 17 16 18 18 19 18 17 17 16 15 15 14 13 13 12 12 12 11 11 10 9 9 9 8 8 8 7 8 8 8 8 7 8 7 6 5 5 5 5 4 4 5 5 5 5 5 5 5 5 6 6 6 5 5 5 9 10 9 7 6 5 4 3 3 4 5 6 7 6 4 5 8 7 6 6 6 5
12 11 12 12 11 12 14 16 17 17 18 18 19 18 18 17 17 16 15 15 14 13 12 11 11 10 10 10 9 9 8 8 8 8 7 8 8 8 8 7 7 7 5 5 4 4 4 4 4 4 5 4 4 3 2 2 3 4 5 5 6 5 4 7 9 9 8 6 5 4 4 3 4 5 6 7 6 5 6 7 7 6 6 6 6
13 13 12 12 13 15 16 16 16 19 19 19 19 18 18 17 17 16 15 14 13 13 11 10 10 9 9 9 9 9 8 8 8 7 7 8 9 9 8 7 7 6 5 4 4 4 3 3 3 3 4 3 3 3 1 1 2 1 3 4 6 6 5 6 9 10 9 7 6 5 4 4 4 5 6 6 6 5 6 7 7 7 6 5 6
13 14 14 15 17 16 17 18 17 19 20 20 20 18 17 18 17 16 15 13 12 12 11 9 9 8 8 8 8 8 8 8 7 6 7 8 8 8 7 7 7 5 5 4 2 2 2 1 2 2 3 3 2 2 0 1 3 2 1 2 5 7 6 5 7 8 8 7 6 6 5 5 5 5 6 7 6 6 6 6 7 7 6 6 6
19 21 22 20 20 17 17 19 19 19 20 20 20 17 17 18 16 15 14 12 11 11 10 9 8 8 8 7 6 7 7 7 7 7 7 7 7 8 7 6 5 4 3 2 2 1 1 1 2 2 2 2 2 1 0 3 4 3 2 2 5 7 7 5 6 7 7 7 6 6 6 6 5 5 6 7 6 6 6 6 6 7 6 6 6
28 27 25 22 22 21 19 19 19 19 19 18 18 17 17 17 15 15 13 12 11 10 9 8 8 8 7 6 6 6 6 7 7 7 7 6 7 7 6 5 4 3 2 2 2 2 1 1 2 1 1 2 2 1 1 3 5 4 3 2 5 6 6 5 4 5 6 6 6 6 6 6 6 5 6 7 7 7 7 7 6 6 6 6 6
30 29 26 24 25 25 22 19 19 19 19 17 17 17 17 16 15 14 13 11 10 9 8 8 7 7 6 6 6 6 7 7 7 7 6 5 6 7 6 5 5 4 4 3 3 3 2 1 2 2 0 1 1 0 1 3 5 4 2 2 5 5 5 5 4 5 6 7 6 6 6 7 6 5 5 6 7 7 7 7 6 6 6 6 7
30 31 28 27 26 24 21 19 19 19 18 16 16 17 17 16 15 12 11 10 9 8 7 7 6 6 6 6 6 7 7 7 7 7 6 5 5 6 7 6 5 5 5 4 3 2 3 2 2 3 1 1 2 1 1 2 4 4 2 2 4 4 5 5 5 4 6 7 7 7 7 7 6 5 5 5 6 7 8 8 7 7 6 6 6
27 29 28 26 23 21 19 19 20 19 17 16 16 16 16 15 13 11 10 9 7 7 6 5 6 6 6 6 7 8 8 8 8 7 6 5 5 7 7 6 6 6 5 4 3 3 3 3 4 4 3 2 3 3 2 3 3 4 3 1 2 3 4 5 6 5 5 7 7 8 8 8 7 6 6 5 6 7 8 8 8 7 7 6 6
21 23 23 21 19 17 18 20 20 19 18 17 17 16 14 13 11 10 9 7 6 6 6 5 6 6 6 7 8 8 8 8 7 6 6 6 6 7 8 7 6 6 6 5 5 4 4 5 5 5 5 4 4 4 4 3 3 3 3 2 1 3 4 4 5 5 6 7 8 9 9 8 8 7 7 6 5 7 7 7 8 8 8 8 7
19 17 18 18 16 15 18 20 20 20 19 17 16 13 11 10 9 9 8 7 6 7 6 5 5 5 5 6 7 7 7 7 7 6 6 6 6 7 7 7 7 7 7 6 6 6 6 6 6 5 5 5 5 4 4 3 3 3 2 2 1 3 5 5 5 5 5 6 8 9 9 9 8 8 8 7 6 6 8 7 7 9 8 8 8
16 13 14 16 17 17 18 20 20 20 18 16 13 10 8 8 8 8 7 6 6 6 4 3 4 3 4 5 6 6 6 6 6 6 6 7 7 6 7 8 8 8 7 7 8 8 7 7 6 6 6 5 5 4 3 3 3 4 3 1 1 1 4 6 6 6 5 6 8 9 10 10 9 9 8 8 8 7 8 7 6 8 8 8 9
15 13 14 17 20 21 19 20 19 18 17 13 10 7 7 6 6 6 5 5 5 3 2 2 3 2 3 4 4 5 5 5 6 7 7 8 7 6 6 7 8 8 7 8 8 8 7 6 6 6 6 7 5 4 3 3 4 4 3 2 2 2 3 6 7 8 7 7 8 10 10 11 10 9 9 9 9 8 9 8 7 7 7 7 7
17 15 15 17 19 20 19 19 19 18 14 11 8 7 6 6 6 5 4 4 3 3 3 3 3 2 3 3 3 4 4 5 6 8 8 9 8 6 6 6 7 6 6 7 7 7 6 6 5 5 6 7 6 4 3 3 4 5 5 3 3 3 4 5 7 9 10 10 10 10 11 11 11 10 10 9 9 9 9 9 8 8 7 7 7
20 18 16 16 16 17 18 19 19 16 13 11 9 8 7 6 6 5 3 3 3 3 3 3 3 2 2 2 1 2 3 3 5 7 8 9 8 6 5 5 5 5 5 7 7 6 6 7 7 6 6 7 6 4 4 4 5 6 5 4 4 4 4 5 6 8 10 12 12 11 11 12 12 11 10 10 10 9 9 10 9 9 9 8 8
18 18 18 17 15 16 17 18 17 15 13 12 11 10 9 7 6 5 5 5 5 5 4 4 4 3 2 1 1 1 2 3 4 5 6 6 7 5 4 4 5 5 6 8 7 5 6 7 7 7 7 7 6 5 5 5 5 6 6 5 5 4 4 4 5 6 8 10 12 12 12 13 13 12 12 11 11 10 10 10 10 10 10 9 10
16 18 17 15 15 16 17 17 16 16 14 13 13 12 10 9 9 8 7 7 7 6 5 5 5 5 5 5 4 3 3 3 3 4 3 3 4 4 4 5 5 6 7 7 7 6 6 6 6 6 7 7 6 6 7 6 6 6 6 6 6 5 4 4 4 5 6 8 11 12 13 14 15 13 13 12 12 12 12 11 11 10 11 10 10
18 20 16 13 14 15 16 16 17 17 16 15 15 14 12 11 11 9 9 9 8 8 7 6 6 6 6 6 5 4 4 4 4 4 4 4 3 4 4 5 6 6 6 6 5 6 5 4 5 5 6 7 7 7 8 7 6 6 5 5 5 4 4 4 4 3 4 5 7 9 11 12 13 12 11 12 12 12 13 13 13 12 12 11 11
22 24 21 17 14 14 16 17 18 18 17 17 17 17 16 14 12 10 10 10 9 9 8 6 5 4 4 4 5 5 5 5 6 6 6 5 4 4 4 4 4 4 4 2 1 2 3 3 3 3 4 6 8 8 7 8 7 5 4 4 4 4 5 4 4 4 4 4 4 5 6 6 6 6 8 10 10 11 12 13 13 14 14 13 12
25 26 25 21 18 17 18 19 20 20 18 18 18 18 16 14 13 12 12 12 10 9 8 6 4 3 3 4 4 4 4 4 6 6 6 5 5 3 2 2 2 2 2 2 2 2 1 2 2 3 4 6 8 8 6 7 6 5 3 1 2 3 5 6 6 7 6 6 5 5 5 6 4 3 5 6 6 7 9 11 12 12 13 14 14
23 22 23 23 23 22 22 22 23 21 19 18 18 17 15 13 12 12 13 12 11 10 9 7 5 4 4 4 4 3 2 2 4 7 7 6 5 4 3 2 1 1 1 0 2 3 3 2 1 3 4 5 6 5 3 5 4 5 4 1 0 1 2 4 5 8 9 10 9 7 7 7 8 8 7 5 5 5 7 8 9 10 11 12 12
19 19 21 24 26 27 26 25 25 22 20 19 18 16 15 13 11 13 14 12 12 12 10 9 6 5 4 4 5 4 3 2 5 7 8 6 5 4 4 3 2 2 3 4 3 2 3 4 3 3 3 4 4 2 2 3 3 6 4 1 1 1 1 2 2 4 7 9 11 10 9 9 11 11 10 9 9 9 9 9 9 10 10 10 11
20 21 23 26 28 29 29 27 26 22 20 21 19 16 16 14 14 16 15 13 13 13 12 10 7 6 5 5 6 5 5 5 6 7 7 6 5 4 3 2 1 2 3 4 5 4 3 1 2 3 2 2 3 3 4 4 3 4 3 2 2 1 2 1 1 1 2 5 9 9 9 9 10 10 11 10 10 11 11 11 12 11 10 10 12
22 23 25 27 29 30 29 27 25 22 21 21 19 17 16 17 18 19 17 15 15 13 11 10 8 7 7 7 7 7 6 7 6 6 6 5 4 3 2 1 0 2 3 4 4 5 5 4 3 3 2 2 3 3 4 4 3 1 3 4 2 2 3 2 1 1 1 2 5 7 7 6 6 6 6 5 4 6 6 6 7 7 7 8 10
23 24 25 25 26 27 28 27 25 23 23 21 18 17 18 18 18 18 17 16 16 13 11 9 8 8 8 9 8 8 7 7 7 6 5 5 5 4 3 2 2 3 4 3 3 4 5 5 5 4 3 3 3 4 4 4 3 1 2 3 1 2 4 4 3 1 1 1 1 3 5 4 3 2 2 1 1 1 1 3 4 3 2 4 6
18 17 16 13 11 13 19 24 25 24 22 21 19 19 18 18 17 16 16 16 15 13 11 9 9 9 10 10 9 8 8 7 7 6 6 6 5 5 4 3 3 4 4 3 3 3 4 4 5 5 5 4 3 3 4 5 5 4 2 1 2 1 0 2 3 4 3 1 1 1 0 1 2 0 1 1 1 2 3 4 5 5 3 1 4
6 7 11 12 10 10 12 18 23 25 23 22 21 19 18 17 17 17 17 16 14 14 13 11 11 10 10 10 8 7 7 6 6 7 8 7 6 5 3 3 4 4 3 3 3 3 3 3 4 5 5 6 5 4 3 4 5 5 4 2 2 1 1 0 3 5 5 3 0 1 4 6 5 5 2 1 2 3 4 5 4 5 4 2 2
16 19 16 10 11 14 17 18 20 23 23 22 22 20 18 17 18 19 19 18 16 16 15 14 13 11 10 9 8 6 5 6 7 8 8 7 6 5 3 3 4 4 4 3 4 4 4 4 5 4 4 6 7 7 7 6 5 5 4 3 2 2 2 1 4 7 8 8 4 2 6 7 7 11 11 9 10 11 11 10 7 6 5 4 3
25 22 16 11 13 17 20 18 17 19 20 21 21 21 20 18 18 19 18 18 18 18 18 16 14 12 10 9 7 6 6 6 8 9 8 7 5 5 5 6 6 5 4 5 4 5 5 6 6 6 5 6 6 7 7 8 8 7 6 5 5 5 6 6 7 6 5 5 5 4 7 9 10 14 18 19 18 17 17 16 15 14 12 9 6
Wind_Direction
160 160 157 157 158 160 161 156 155 152 147 142 136 131 130 129 130 132 134 137 137 135 135 135 135 136 135 135 135 138 139 137 136 134 131 127 122 117 113 112 114 116 120 122 122 122 120 119 121 121 118 116 115 115 116 115 114 114 113 109 109 108 106 107 107 104 102 101 100 98 99 100 100 101 98 93 92 93 97 94 86 81 76 73 72
156 158 156 157 159 160 159 156 158 154 149 145 138 134 132 132 131 132 135 137 139 139 138 135 135 136 136 137 138 138 138 137 136 133 128 124 120 115 110 111 114 115 118 121 121 121 122 121 122 122 119 119 117 116 116 116 116 118 115 112 114 111 107 109 107 105 104 103 101 97 97 101 104 102 98 96 92 93 98 92 83 80 77 74 71
149 152 153 154 158 159 158 157 158 154 150 146 141 137 134 133 132 132 134 136 138 139 140 138 137 137 137 138 138 137 136 134 131 127 123 119 118 117 114 114 116 118 119 121 120 119 120 119 121 121 121 121 120 120 118 120 121 120 116 113 116 114 113 112 111 111 109 108 106 101 100 102 101 99 98 97 93 91 92 90 84 82 79 75 70
148 149 149 152 156 156 157 158 157 154 152 148 143 138 135 135 134 133 134 135 135 136 138 138 139 138 138 139 137 135 131 128 125 120 117 114 114 115 117 118 118 119 119 118 115 115 118 118 120 121 122 121 122 121 119 123 124 121 118 115 114 112 111 111 111 112 109 109 110 107 103 101 101 99 99 97 97 95 92 89 86 84 78 75 72
147 148 149 150 154 155 157 158 158 155 153 149 145 139 137 136 136 135 134 134 133 133 135 137 138 138 138 136 133 131 128 125 122 118 114 110 111 112 116 118 118 121 124 123 117 113 114 116 117 119 119 120 122 122 123 126 124 122 118 112 109 108 108 107 108 108 106 108 109 109 105 103 104 101 100 100 101 97 94 91 86 83 78 75 74
146 148 149 149 154 156 157 158 158 155 153 150 146 141 138 138 138 137 136 135 134 134 135 137 137 136 134 131 130 129 127 124 121 120 116 112 111 110 111 114 116 119 120 121 119 111 107 113 117 119 121 121 123 124 127 126 121 118 114 109 106 105 104 104 106 108 108 110 109 108 108 105 103 101 102 104 101 97 97 95 89 86 81 78 76
144 146 147 149 153 155 157 157 157 154 152 151 147 143 140 139 139 138 137 135 135 136 137 138 137 134 132 131 132 130 128 125 125 125 123 119 113 109 107 110 114 115 112 110 110 106 107 117 119 121 124 124 124 125 128 127 121 116 111 107 104 101 101 101 102 108 110 111 109 106 108 105 104 105 104 104 103 101 98 95 93 90 84 81 77
141 143 146 148 149 151 156 156 155 153 151 150 147 144 142 140 139 139 139 138 138 139 140 140 138 136 136 136 134 131 129 128 128 126 126 124 116 111 108 109 114 117 116 113 111 108 110 116 117 122 126 125 126 128 129 129 125 123 118 112 110 104 103 103 102 106 110 113 112 108 108 109 108 105 101 103 105 103 101 100 99 91 84 83 78
143 145 146 147 148 151 154 153 151 150 151 150 148 146 144 142 141 141 142 142 143 144 144 143 142 141 141 139 134 132 130 128 127 124 126 125 118 115 114 117 122 123 118 116 116 114 110 109 112 120 127 129 129 130 131 132 130 132 132 127 125 116 106 107 106 107 110 113 117 115 114 117 114 107 104 105 107 109 110 106 100 95 87 84 80
144 145 148 149 150 155 155 152 150 151 152 150 148 147 146 146 145 146 145 145 145 146 146 145 146 146 143 139 136 133 131 128 125 125 128 125 121 119 122 125 128 130 121 114 114 111 112 113 112 120 132 134 129 131 135 138 136 138 140 135 131 130 124 114 113 115 112 113 119 121 124 127 122 117 115 110 109 109 107 101 97 97 92 86 84
142 146 149 150 152 157 155 153 153 153 154 152 151 150 150 151 152 152 149 148 146 147 147 147 148 147 145 141 138 135 131 128 126 128 129 126 125 124 126 128 128 130 123 116 112 102 104 114 117 122 133 134 132 136 140 143 144 145 145 141 140 149 155 140 130 128 122 121 122 125 131 130 115 115 115 111 110 105 100 98 98 99 96 91 87
143 148 150 150 152 155 153 151 151 153 153 152 153 153 154 156 158 156 151 149 147 147 149 150 149 147 146 143 142 138 133 130 129 131 131 129 129 129 130 130 128 128 122 113 108 95 93 108 117 122 130 135 139 144 144 146 147 150 146 141 150 158 163 161 149 141 138 133 126 124 128 121 111 114 115 112 111 108 104 103 101 100 98 93 87
146 149 148 150 152 153 151 149 148 150 149 150 154 155 157 160 161 157 151 150 149 150 150 151 149 147 146 145 144 141 138 135 134 134 134 132 132 135 134 131 128 125 122 111 102 88 89 106 118 123 129 136 141 145 144 145 143 142 135 131 141 141 157 172 164 154 148 144 132 126 124 118 118 123 123 119 114 111 109 106 102 99 98 96 91
147 149 148 151 152 151 150 149 147 147 150 154 156 156 159 162 160 155 153 154 154 151 150 151 150 147 147 147 147 145 142 139 137 137 137 135 134 138 137 136 131 125 124 114 99 85 88 108 121 126 129 135 139 141 138 137 136 132 127 125 132 124 149 169 165 160 151 148 139 131 126 121 124 127 126 123 119 117 112 108 108 105 101 99 95
148 149 149 150 150 152 152 150 147 149 156 158 156 157 161 163 159 157 157 157 156 152 151 153 152 150 149 149 148 145 143 141 139 137 135 134 134 139 141 139 132 128 127 115 101 89 88 107 121 126 127 130 132 133 130 130 132 132 125 122 128 127 144 156 157 160 152 151 145 133 125 121 122 124 124 122 121 123 119 115 119 115 103 97 93
147 147 147 147 148 151 152 150 149 153 157 156 153 154 159 163 160 160 161 161 158 155 153 153 154 152 151 150 145 141 140 138 135 132 131 132 134 139 144 148 145 138 133 119 109 96 95 112 118 120 122 123 124 125 126 127 129 131 122 115 123 130 145 152 150 154 154 152 146 132 124 119 121 127 130 127 125 125 123 121 123 118 104 97 94
145 145 145 146 147 147 147 149 151 153 154 155 153 152 158 161 160 161 165 166 160 155 153 151 151 148 146 142 136 135 134 132 131 132 133 133 134 137 141 148 147 141 134 125 118 108 108 118 118 114 115 116 120 122 123 125 126 129 118 111 127 143 154 158 152 153 156 156 145 131 126 121 127 138 142 137 133 130 127 123 122 119 111 104 99
142 144 143 142 143 143 144 146 149 150 153 155 154 154 156 158 157 161 165 162 156 153 150 145 143 139 135 133 132 134 134 133 135 137 136 135 134 134 134 136 137 138 135 130 127 119 119 125 120 114 113 113 116 120 121 122 123 123 115 111 132 156 163 164 160 158 162 161 151 135 129 126 134 148 150 145 135 130 128 125 124 121 116 113 105
139 141 140 142 144 143 144 145 149 153 159 158 154 153 153 156 158 160 160 155 152 148 143 139 137 133 130 133 135 134 135 137 140 141 141 140 137 134 133 132 134 137 134 135 141 133 127 130 127 120 118 117 116 116 116 118 119 117 114 110 124 160 169 168 166 165 169 169 159 144 133 131 143 155 154 151 133 129 131 128 127 123 119 119 110
140 144 144 148 149 148 150 151 156 162 164 157 152 154 155 158 159 159 157 153 150 142 138 134 132 132 132 136 135 133 134 137 141 146 145 141 138 133 129 130 131 134 136 143 153 149 136 135 136 131 130 129 121 115 115 117 118 113 114 110 107 145 165 169 170 170 172 176 171 155 142 139 146 153 154 152 140 140 137 130 130 128 126 123 114
144 150 150 152 150 152 156 158 163 165 162 155 154 154 156 160 159 157 155 152 147 141 139 136 135 138 138 137 134 134 135 135 140 145 144 141 140 137 135 136 138 141 146 148 152 152 142 138 141 142 142 143 131 118 117 121 121 113 116 114 100 121 155 167 172 175 178 185 185 168 157 149 148 153 158 155 149 154 142 133 135 134 131 126 122
146 148 149 149 148 152 159 164 168 164 158 154 154 155 157 160 158 157 155 152 150 148 148 146 146 145 144 143 139 140 140 141 144 146 145 147 150 151 153 154 156 159 159 152 147 150 146 139 144 152 154 152 145 130 124 124 123 116 116 121 108 109 147 168 175 179 183 194 197 188 177 158 151 158 165 162 159 167 145 135 138 137 135 133 132
139 140 142 141 144 155 163 169 171 164 158 155 156 159 160 159 158 158 159 158 158 159 158 157 156 153 154 154 152 150 152 155 155 153 152 158 162 163 167 168 169 170 166 155 144 146 150 149 153 162 167 161 154 142 128 123 121 118 116 125 127 112 143 173 181 185 188 201 206 208 203 173 160 166 170 169 170 172 146 139 141 141 140 140 138
131 125 127 131 148 169 172 174 176 170 163 159 161 163 161 159 160 163 167 166 163 163 162 160 159 160 162 162 164 166 169 174 171 168 169 171 172 172 173 173 175 174 170 164 154 155 162 171 178 177 177 171 159 152 137 119 109 117 119 129 146 138 137 171 182 187 189 200 210 221 222 193 170 173 178 178 178 170 150 147 148 146 146 144 139
126 122 130 147 173 183 179 179 181 177 170 167 167 165 162 163 165 170 173 169 166 166 164 161 159 162 165 167 173 177 183 186 184 184 184 182 179 178 178 178 182 178 175 175 169 171 183 195 200 194 191 180 165 167 166 43 28 78 123 131 155 157 143 159 175 183 188 195 211 227 231 217 190 180 185 187 185 172 159 159 155 152 152 150 148
135 150 163 178 189 189 186 186 186 183 177 175 172 167 167 170 172 177 177 173 172 169 166 164 164 165 167 171 175 180 187 191 195 194 189 189 188 188 188 188 187 183 179 179 185 187 199 247 256 230 214 203 187 190 199 9 7 8 81 132 161 166 159 160 168 176 184 190 211 229 235 228 207 187 190 195 192 177 170 171 161 157 156 152 154
169 175 179 190 197 194 194 192 191 187 183 181 176 170 174 177 177 180 181 178 176 172 172 171 169 170 171 176 180 187 195 199 202 198 194 197 196 197 198 198 193 189 189 182 202 221 218 293 310 271 240 232 223 210 60 21 13 14 34 131 165 169 168 170 171 173 179 186 206 229 238 236 221 198 195 201 199 187 183 181 171 165 162 157 159
182 183 184 193 200 200 200 197 195 191 186 184 180 177 180 181 180 183 183 180 178 177 177 176 175 176 177 182 187 197 208 212 211 204 204 208 208 208 206 207 202 196 210 220 221 228 237 335 7 345 258 242 223 195 75 31 17 19 40 115 166 172 170 172 176 176 177 183 203 226 240 243 232 209 197 201 204 196 191 188 182 178 173 167 167
184 184 187 194 200 204 202 199 197 193 189 186 184 185 184 184 186 186 184 180 179 180 181 182 182 182 185 191 194 203 214 218 218 216 215 219 223 222 215 211 211 207 210 227 234 234 246 294 6 17 357 236 226 248 50 33 16 13 37 110 163 178 178 180 185 188 188 188 202 225 240 246 240 222 205 202 204 199 196 197 193 192 190 182 176
186 186 189 195 200 204 201 200 200 196 194 191 190 191 189 189 193 190 189 187 183 184 187 189 191 194 198 199 201 209 218 219 221 229 232 237 240 235 232 223 218 213 209 218 225 228 243 263 316 339 334 271 264 268 310 359 6 5 14 108 163 184 196 199 198 200 205 204 210 226 237 244 243 232 220 209 200 198 201 201 199 199 201 197 185
189 191 191 194 196 199 199 201 202 201 201 199 197 197 194 195 197 195 198 198 193 197 202 208 213 210 201 200 209 214 219 222 226 235 242 250 248 240 244 241 224 212 210 215 215 222 239 254 278 297 291 273 270 260 275 315 341 353 357 3 192 201 203 201 203 209 215 216 221 232 240 245 244 237 235 225 198 196 205 202 201 207 207 206 195
192 195 191 190 187 193 203 203 203 205 205 205 203 202 199 201 204 204 210 210 204 214 221 231 236 223 207 208 219 220 221 225 227 234 249 255 243 236 244 246 230 214 212 218 224 232 242 254 264 272 270 267 271 256 257 284 299 323 345 353 268 227 222 209 209 219 225 226 228 235 242 247 246 238 238 238 211 200 211 207 203 209 209 208 205
194 196 192 188 178 188 206 206 205 208 208 207 206 205 206 210 215 215 220 219 218 224 223 234 245 236 225 226 229 224 224 228 227 235 253 251 238 235 241 240 232 225 226 231 239 246 250 256 257 259 256 256 268 260 257 260 254 278 311 355 20 223 232 230 221 218 231 240 238 240 243 248 248 242 237 239 233 215 221 223 209 211 213 210 211
195 195 193 190 184 192 205 205 205 210 208 204 204 206 213 219 223 223 226 233 239 237 223 235 245 239 236 237 236 231 232 237 238 245 246 238 232 234 239 239 237 236 240 245 251 255 256 254 251 251 249 250 260 258 258 247 228 244 260 271 95 166 215 225 220 210 223 243 247 247 246 249 251 247 242 238 240 234 234 239 224 217 221 221 217
195 190 191 193 195 198 202 203 203 206 203 200 202 205 216 221 222 227 233 244 258 259 239 247 249 243 244 243 241 238 238 236 239 242 235 230 231 236 244 245 242 243 246 250 253 255 256 255 249 246 244 247 253 249 245 232 218 221 222 210 175 160 183 208 214 207 213 233 244 248 247 251 255 253 251 245 243 242 243 246 240 228 224 231 229
193 188 187 189 195 199 199 200 200 202 201 194 195 199 206 211 216 227 236 238 244 243 231 238 238 234 252 258 248 244 244 235 231 233 232 232 233 238 247 246 241 242 249 252 252 253 253 257 253 245 242 244 246 239 229 213 207 201 193 188 182 178 177 191 206 210 214 224 235 242 244 250 257 257 256 254 251 248 248 247 245 240 234 237 239
190 183 186 186 193 201 201 202 202 202 197 185 183 188 190 196 207 208 206 208 201 200 204 206 204 203 239 273 249 245 250 235 232 234 233 232 231 233 238 236 233 240 259 263 259 256 253 256 254 244 239 241 239 226 209 191 190 191 182 174 172 174 179 185 197 209 219 225 230 234 238 247 255 259 259 259 259 258 256 253 248 246 244 244 245
187 183 191 188 192 205 206 205 204 200 192 182 178 177 179 184 188 182 175 176 170 170 170 166 162 151 137 110 116 153 171 194 217 229 232 229 225 226 228 227 233 254 276 278 274 265 249 251 253 245 237 236 233 215 199 184 182 190 185 171 165 162 164 173 189 206 219 227 230 231 235 243 250 255 256 257 261 263 263 260 257 251 249 249 249
186 187 194 188 190 202 206 205 204 199 189 181 176 172 175 177 173 164 159 158 156 156 147 140 134 121 114 110 111 113 121 149 176 196 207 206 207 213 224 230 236 253 268 274 279 273 254 246 244 241 235 231 226 209 192 183 182 191 194 182 172 165 153 147 171 200 217 228 231 232 236 242 246 250 251 251 254 262 265 263 264 261 256 253 251
189 192 196 193 193 195 201 205 204 200 188 180 176 172 172 171 164 155 148 146 143 142 139 135 127 116 112 109 110 107 101 111 127 140 141 140 160 186 211 226 234 244 254 264 276 281 277 264 249 235 225 225 227 213 183 173 179 180 189 192 184 179 170 152 147 166 190 214 226 229 233 241 247 249 251 251 251 258 263 263 265 266 264 261 256
195 196 197 201 203 193 198 206 205 202 192 181 177 174 170 162 155 147 139 136 137 137 136 139 132 122 119 114 112 106 98 99 111 122 125 127 137 162 198 222 236 247 249 233 236 290 302 294 274 235 218 225 238 236 197 174 177 173 181 201 203 214 219 205 187 175 169 167 178 198 209 215 231 243 246 250 253 257 260 262 264 266 267 267 266
198 198 194 198 206 199 198 206 207 202 196 186 178 174 167 159 153 146 141 138 139 143 145 149 148 143 138 132 125 109 89 89 114 129 127 124 122 134 169 202 231 257 264 226 168 181 284 307 278 225 217 225 247 257 218 184 187 184 176 190 235 242 237 228 223 219 212 196 178 171 178 171 179 234 237 241 259 266 269 265 260 264 267 268 272
200 197 191 192 200 201 199 204 205 200 197 191 181 170 162 160 155 149 149 147 148 154 160 166 172 171 158 150 144 129 101 95 134 142 135 130 125 123 126 124 125 96 54 15 156 179 205 226 234 217 215 218 241 267 216 193 200 183 161 94 283 322 284 255 236 231 230 225 219 212 207 209 228 247 243 243 262 276 288 281 267 268 274 283 290
203 195 189 189 193 197 199 200 201 198 196 190 180 170 163 164 161 157 158 156 158 164 168 173 179 178 162 152 148 139 132 134 147 148 141 137 135 130 126 119 105 88 81 70 81 127 190 199 203 208 215 217 221 224 204 218 199 171 150 65 92 77 313 280 240 234 234 231 233 234 231 230 236 245 252 260 264 270 283 284 275 269 269 281 291
205 197 192 192 193 195 197 196 195 193 190 185 179 173 168 166 162 159 159 158 159 165 170 172 174 171 153 136 130 126 130 137 146 152 151 149 143 136 132 129 104 80 81 75 75 71 75 128 161 170 193 219 211 198 215 236 210 170 154 124 121 145 251 264 107 186 226 224 227 228 228 225 227 241 254 261 261 261 268 270 272 273 272 274 272
206 200 195 196 195 193 191 189 188 184 181 181 180 179 174 170 166 163 162 160 160 167 174 172 172 165 147 133 124 120 125 133 144 155 159 158 149 145 149 168 155 98 94 84 80 71 64 58 65 108 159 202 204 191 207 237 242 167 147 156 166 170 174 174 170 135 82 222 219 210 208 204 209 233 245 248 246 244 260 277 286 287 282 282 278
205 200 196 194 192 188 184 182 179 175 177 180 184 185 178 173 170 169 170 170 168 172 179 176 171 162 147 140 132 123 121 124 135 148 159 160 149 147 148 155 156 134 124 115 96 79 74 67 60 77 128 158 189 200 211 228 231 178 143 167 189 137 143 157 166 131 93 271 247 198 199 186 169 164 179 196 234 239 339 344 333 340 305 273 281
205 200 188 175 167 161 164 171 172 173 179 184 188 187 180 172 169 169 172 176 176 175 177 172 165 159 151 146 138 130 124 120 128 142 155 155 144 139 140 153 165 155 140 131 120 102 88 80 77 85 102 118 141 188 207 208 201 197 188 215 283 313 116 158 153 142 148 186 341 338 42 115 147 127 206 181 64 16 354 343 318 327 357 260 269
181 134 109 96 90 110 149 171 174 176 181 186 186 184 179 172 169 171 172 173 175 171 170 167 162 161 157 149 142 134 127 124 130 142 149 147 136 128 129 161 171 155 140 132 122 112 98 97 102 94 91 97 99 101 118 149 172 188 190 207 254 297 22 88 110 91 72 64 27 332 42 75 75 32 21 159 60 44 20 9 331 311 319 319 310
92 90 91 109 137 161 183 189 182 180 182 184 184 180 179 178 177 178 174 169 169 166 166 167 167 167 163 154 147 139 133 132 138 145 146 139 126 109 101 134 152 147 143 138 129 119 107 109 110 103 97 94 87 81 80 92 118 138 147 163 166 118 111 65 56 59 56 57 67 30 33 62 67 55 67 82 77 75 71 64 61 43 23 11 353
89 88 97 127 159 182 200 203 190 183 182 183 183 182 182 186 188 185 178 171 170 170 170 172 174 175 174 166 158 150 142 137 141 145 143 133 116 98 96 109 117 124 132 135 140 138 127 121 120 118 111 92 76 69 70 79 96 106 103 99 89 77 77 69 61 76 99 91 84 57 47 68 79 77 80 83 81 80 76 71 66 61 54 49 45